This site uses a module created by best online poker sites.

BSB police report ending May 29, 2019

"05/28/2019","00:11","219CR0012339","T/S","T/S","DEWEY AND LEXINGTON","",""
"05/28/2019","00:56","219CR0012340","BUSINESS CHECK","BUSINESS CHECK","1370 HARRISON","",""
"05/28/2019","01:15","219CR0012341","FRAUD","FRAUD","1400 HARRISON MT LILS","",""
"05/28/2019","01:28","219CR0012342","MEDICAL - EMERGENCY","MEDICAL - EMERGENCY","1043 COLORADO ST","",""
"05/28/2019","02:24","219CR0012343","SUSPICIOUS ACTIVITY","SUSPICIOUS ACTIVITY","207 W PARK ST","",""
"05/28/2019","02:26","219CR0012345","ASSIST OTHER AGENCY","ASSIST OTHER AGENCY","HOMESTAKE PASS","",""
"05/28/2019","02:26","219CR0012344","SUSPICIOUS ACTIVITY","SUSPICIOUS ACTIVITY","2100 CORNELL/QUALITY INN","",""
"05/28/2019","03:23","219CR0012346","SUSPICIOUS ACTIVITY","SUSPICIOUS ACTIVITY","1021 S ARIZONA","",""
"05/28/2019","03:30","219CR0012347","WELFARE CHECK","WELFARE CHECK","2600 GOODWIN","",""
"05/28/2019","03:39","219CR0012348","SUSPICIOUS ACTIVITY","SUSPICIOUS ACTIVITY","1314 FARRELL","",""
"05/28/2019","03:41","219CR0012349","CITIZEN AID","CITIZEN AID","1401 SAMPSON AVE","",""
"05/28/2019","04:02","219CR0012350","UNWANTED PERSON","UNWANTED PERSON","************","",""
"05/28/2019","04:33","219CR0012351","SUSPICIOUS ACTIVITY","SUSPICIOUS ACTIVITY","220 CURTIS ST APT 111","",""
"05/28/2019","04:50","219CR0012352","MEDICAL - EMERGENCY","MEDICAL - EMERGENCY","232 E MERCURY ST","",""
"05/28/2019","05:43","219CR0012353","ALARM - BURGLARY","ALARM - BURGLARY","************","",""
"05/28/2019","06:34","219CR0012354","SUSPICIOUS ACTIVITY","CRIMINAL MISCHIEF","1008 DELAWARE","ARREST(s) MADE",""
"05/28/2019","06:38","219CR0012355","THEFT","THEFT, SHOPLIFT","122000 BROWN GULCH","",""
"05/28/2019","06:42","219CR0012356","MAN WITH A GUN","MAN WITH A GUN","************","",""
"05/28/2019","07:59","219CR0012357","LED BUSINESS","LED BUSINESS","55 W QUARTZ","",""
"05/28/2019","08:12","219CR0012358","THEFT","THEFT","616 1/2 E FRONT ST","",""
"05/28/2019","08:14","219CR0012359","CIVIL PAPER SERVICE","CIVIL PAPER SERVICE","1957 OREGON","",""
"05/28/2019","08:15","219CR0012360","T/S","CRIMINAL CONTEMPT","2000 BLK FLORENCE AVE","ARREST(s) MADE",""
"05/28/2019","08:24","219CR0012361","CIVIL PAPER SERVICE","CIVIL PAPER SERVICE","1100 CALIFORNIA","",""
"05/28/2019","08:26","219CR0012362","CIVIL PAPER SERVICE","CIVIL PAPER SERVICE","1413 BROWNING","",""
"05/28/2019","08:27","219CR0012363","UNWANTED PERSON","UNWANTED PERSON","************","",""
"05/28/2019","08:39","219CR0012364","CIVIL PAPER SERVICE","CIVIL PAPER SERVICE","601 S IDAHO","",""
"05/28/2019","09:01","219CR0012365","CIVIL STANDBY","CIVIL STANDBY","225 N ALASKA","",""
"05/28/2019","09:06","219CR0012366","ABANDONED VEHICLE","ABANDONED VEHICLE","ABERDEEN ST AND HOWARD ST","",""
"05/28/2019","09:11","219CR0012367","CIVIL PAPER SERVICE","CIVIL PAPER SERVICE","1557 BROWNING ST","",""
"05/28/2019","09:27","219CR0012368","LED BUSINESS","LED BUSINESS","155 W GRANITE ST","",""
"05/28/2019","09:56","219CR0012370","DISTURBANCE","DISTURBANCE","3638 SADDLEROCK","",""
"05/28/2019","10:06","219CR0012371","SUICIDE ATTEMPT/THREAT","SUICIDE ATTEMPT/THREAT","************","",""
"05/28/2019","10:13","219CR0012372","STOLEN VEHICLE","MOTOR VEHICLE THEFT","310 W FRONT ST","",""
"05/28/2019","10:24","219CR0012373","TRAFFIC","TRAFFIC","WYOMING AND BROADWAY","",""
"05/28/2019","10:29","219CR0012374","FRAUD","THEFT OF SERVICES","6000 S HARRISON AVE","",""
"05/28/2019","10:36","219CR0012375","LED BUSINESS","LED BUSINESS","24 E COPPER ST","",""
"05/28/2019","10:44","219CR0012376","T/S","T/S","500 BLK S MONTANA","",""
"05/28/2019","10:49","219CR0012377","THEFT","THEFT, ALL OTHERS","1031 IOWA","",""
"05/28/2019","10:56","219CR0012378","FIRE- GAS ODOR","FIRE- GAS ODOR","941 W GRANITE","",""
"05/28/2019","10:57","219CR0012379","WELFARE CHECK","WELFARE CHECK","2223 LOCUST","",""
"05/28/2019","11:00","219CR0012381","T/S","T/S","CENTENNIAL AND SANTA CLAUS WY","",""
"05/28/2019","11:09","219CR0012383","LED BUSINESS","LED BUSINESS","2690 COLUSA","",""
"05/28/2019","11:10","219CR0012382","ISSUING BAD CHECKS","ISSUING BAD CHECKS","3040 BUSCH ST","",""
"05/28/2019","11:16","219CR0012384","LED BUSINESS","LED BUSINESS","712 W GALENA ST","",""
"05/28/2019","11:28","219CR0012386","CIVIL PAPER SERVICE","CIVIL PAPER SERVICE","1411 SILVER BOW HOMES","",""
"05/28/2019","12:11","219CR0012387","HARASSMENT","HARASSMENT","5101 WARREN12B","",""
"05/28/2019","12:18","219CR0012388","SUSPICIOUS ACTIVITY","SUSPICIOUS ACTIVITY","2700 BLK HARRISON AVE","",""
"05/28/2019","12:25","219CR0012390","MEDICAL - EMERGENCY","MEDICAL - EMERGENCY","445 CENTENNIAL","",""
"05/28/2019","12:37","219CR0012391","MEDICAL - EMERGENCY","MEDICAL - EMERGENCY","130 RENZ DRIVE","",""
"05/28/2019","12:40","219CR0012392","LED BUSINESS","LED BUSINESS","225 N ALASKA","",""
"05/28/2019","12:49","219CR0012393","VANDALISM/CRIMINAL MISCHIEF","VANDALISM/CRIMINAL MISCHIEF","1809 PORTER AVE","",""
"05/28/2019","12:50","219CR0012394","JUVENILE MISC","JUVENILE MISC","************","",""
"05/28/2019","13:33","219CR0012395","LED BUSINESS","LED BUSINESS","155 W QUARTZ","",""
"05/28/2019","13:47","219CR0012396","WELFARE CHECK","WELFARE CHECK","HARRISON AVE","",""
"05/28/2019","15:02","219CR0012397","ACCIDENT","ACCIDENT","NEVADA AVE AND PLATINUM ST","",""
"05/28/2019","15:09","219CR0012398","ALL OTHER","ALL OTHER","225 N ALASKA","",""
"05/28/2019","15:33","219CR0012399","WELFARE CHECK","WELFARE CHECK","128 1/2 W GRANITE","",""
"05/28/2019","15:37","219CR0012400","THEFT","THEFT, SHOPLIFT","3901 HARRISON AVE","ARREST(s) MADE",""
"05/28/2019","15:47","219CR0012401","T/S","T/S @ GRAND AND FLORENCE","GRAND AND FLORENCE","",""
"05/28/2019","15:50","219CR0012403","ATL","ATL","699 CENTENNIAL","",""
"05/28/2019","15:53","219CR0012404","T/S","T/S @ MISSOURI AND FIRST","MISSOURI AND FIRST","",""
"05/28/2019","16:15","219CR0012405","SUICIDE ATTEMPT/THREAT","SUICIDE ATTEMPT/THREAT","************","",""
"05/28/2019","16:25","219CR0012406","STOLEN VEHICLE","STOLEN VEHICLE","2718 SILVERBOW BLVD","",""
"05/28/2019","16:31","219CR0012407","MEDICAL - EMERGENCY","MEDICAL - EMERGENCY","1324 HARRISON","",""
"05/28/2019","16:41","219CR0012408","FRAUD","FRAUD","1325 HARRISON AVE","",""
"05/28/2019","16:42","219CR0012409","SUSPICIOUS ACTIVITY","SUSPICIOUS ACTIVITY","600 S MAIN ST","",""
"05/28/2019","16:56","219CR0012410","WELFARE CHECK","WELFARE CHECK","8303 CONTINETAL","",""
"05/28/2019","17:12","219CR0012411","THEFT","THEFT","1557 BROWNING","",""
"05/28/2019","17:13","219CR0012412","WELFARE CHECK","WELFARE CHECK","623 W IRON","",""
"05/28/2019","17:16","219CR0012413","WELFARE CHECK","WELFARE CHECK","3430 S HILLCREST DRIVE","",""
"05/28/2019","17:23","219CR0012414","ALARM - BURGLARY","ALARM - BURGLARY","************","",""
"05/28/2019","17:24","219CR0012415","THEFT","THEFT, ALL OTHERS","203 CAROUSEL WAY","",""
"05/28/2019","17:26","219CR0012416","RESTRAINING ORDER VIOLATION","VIOLATION OF PROTECTION ORDER","PARK AND DAKOTA","ARREST(s) MADE",""
"05/28/2019","17:29","219CR0012417","T/S","T/S @ MONTANA ST AND ALUMINUM ST","MONTANA ST AND ALUMINUM ST","",""
"05/28/2019","17:43","219CR0012418","ALARM - MEDICAL","ALARM - MEDICAL","************","",""
"05/28/2019","17:54","219CR0012419","JUVENILE MISC","THEFT, ALL OTHERS","1837 GARRISON","ARREST(s) MADE",""
"05/28/2019","17:55","219CR0012420","WELFARE CHECK","WELFARE CHECK","832 S MONTANA","",""
"05/28/2019","18:01","219CR0012421","ANIMAL COMPLAINT","ANIMAL COMPLAINT","2125 GAYLORD","",""
"05/28/2019","18:20","219CR0012422","ALL OTHER","ALL OTHER","225 N ALASKA","",""
"05/28/2019","18:33","219CR0012423","ANIMAL COMPLAINT","ANIMAL COMPLAINT","1100 BLK EVANS","",""
"05/28/2019","18:37","219CR0012424","MEDICAL - EMERGENCY","MEDICAL - EMERGENCY","611 TRANSIT ST","",""
"05/28/2019","18:45","219CR0012425","THEFT","THEFT","718 W PARK APT C","",""
"05/28/2019","18:46","219CR0012426","THEFT","THEFT","3901 HARRISON AVE","",""
"05/28/2019","18:50","219CR0012427","VANDALISM/CRIMINAL MISCHIEF","VANDALISM/CRIMINAL MISCHIEF","225 N ALASKA","",""
"05/28/2019","18:51","219CR0012428","ALL OTHER","ALL OTHER","225 N ALASKA","",""
"05/28/2019","18:54","219CR0012429","DISTURBANCE","DISTURBANCE","16 W GALENA APT I","",""
"05/28/2019","19:10","219CR0012430","SUSPICIOUS ACTIVITY","SUSPICIOUS ACTIVITY","918 S COLORADO","",""
"05/28/2019","19:13","219CR0012431","ALARM - BURGLARY","ALARM - BURGLARY","************","",""
"05/28/2019","19:58","219CR0012432","DISTURBANCE","DISTURBANCE","1365 EVANS AVE","",""
"05/28/2019","20:06","219CR0012433","ANIMAL COMPLAINT","ANIMAL COMPLAINT","PLATINUM AND MONTANA","",""
"05/28/2019","20:12","219CR0012434","T/S","T/S @ MONTANA ST AND ALUMINUM ST","MONTANA ST AND ALUMINUM ST","",""
"05/28/2019","20:21","219CR0012435","MEDICAL - EMERGENCY","MEDICAL - EMERGENCY","155 W QUARTZ","",""
"05/28/2019","20:33","219CR0012436","T/S","HABITUAL OFFENDER OPER. VEH","310 E FRONT ST","ARREST(s) MADE",""
"05/28/2019","21:09","219CR0012437","UNWANTED PERSON","UNWANTED PERSON","************","",""
"05/28/2019","21:27","219CR0012439","MEDICAL - EMERGENCY","MEDICAL - EMERGENCY","531 S MONTANA ST","",""
"05/28/2019","21:27","219CR0012438","SUSPICIOUS ACTIVITY","SUSPICIOUS ACTIVITY","1825 GAYLORD","",""
"05/28/2019","21:29","219CR0012440","SUSPICIOUS ACTIVITY","SUSPICIOUS ACTIVITY","ARIZONA ST AND GALENA ST","",""
"05/28/2019","21:58","219CR0012441","SUSPICIOUS ACTIVITY","SUSPICIOUS ACTIVITY","2700 BLK OTTOWA","",""
"05/28/2019","22:43","219CR0012442","THEFT","THEFT, ALL OTHERS","FAIRMONT","",""
"05/28/2019","23:18","219CR0012443","SUSPICIOUS ACTIVITY","SUSPICIOUS ACTIVITY","NE ONRAMP I90","",""
"05/28/2019","23:29","219CR0012444","SUSPICIOUS ACTIVITY","SUSPICIOUS ACTIVITY","50 W BROADWAY ST","",""
"05/28/2019","23:44","219CR0012445","BUSINESS CHECK","BUSINESS CHECK","1370 HARRISON","",""
"05/28/2019","23:55","219CR0012446","T/S","T/S @ LEXINGTON AVE AND ROWE RD","LEXINGTON AVE AND ROWE RD","",""
"05/29/2019","00:03","219CR0012447","SUSPICIOUS ACTIVITY","SUSPICIOUS ACTIVITY","STODDEN PARK","",""
"05/29/2019","00:08","219CR0012448","SUSPICIOUS ACTIVITY","SUSPICIOUS ACTIVITY","CIVIC CENTER 1340 HARRISON","",""
"05/29/2019","00:25","219CR0012449","BUSINESS CHECK","BUSINESS CHECK","2000 DEWEY BLVD DOTTYS CASINO","",""
"05/29/2019","00:30","219CR0012450","SUSPICIOUS ACTIVITY","SUSPICIOUS ACTIVITY","GRAINTE MOUNTIAN MEMORIAL","",""
"05/29/2019","01:36","219CR0012451","DISTURBANCE","DISTURBANCE","318 S EXCELSIOR AVE","",""
"05/29/2019","02:36","219CR0012452","DISTURBANCE","PFMA - REASONABLE APPREHENSION","931 S UTAH","ARREST(s) MADE",""
"05/29/2019","02:40","219CR0012453","ASSAULT","ASSAULT","************","",""
"05/29/2019","05:38","219CR0012454","UNWANTED PERSON","UNWANTED PERSON","************","",""
"05/29/2019","07:24","219CR0012456","T/S","T/S","1000 BLK OF GRIZZLEY TRAIL","",""
"05/29/2019","07:34","219CR0012457","CIVIL PAPER SERVICE","CIVIL PAPER SERVICE","652 S WASHINGTON","",""
"05/29/2019","07:46","219CR0012458","SUSPICIOUS ACTIVITY","SUSPICIOUS ACTIVITY","I 15 MM 127","",""
"05/29/2019","07:57","219CR0012459","T/S","T/S @ ","","",""
"05/29/2019","08:07","219CR0012460","CIVIL PAPER SERVICE","CIVIL PAPER SERVICE","1105 FARRELL","",""
 

BSB police report ending May 28, 2019

"05/27/2019","01:05","219CR0012258","BUSINESS CHECK","BUSINESS CHECK","1370 HARRISON","",""
"05/27/2019","01:17","219CR0012259","BUSINESS CHECK","BUSINESS CHECK","3700 HARRISON AVE","",""
"05/27/2019","01:31","219CR0012260","ALL OTHER","ALL OTHER","FARRELL AND MERCURY","",""
"05/27/2019","01:42","219CR0012261","SUSPICIOUS ACTIVITY","SUSPICIOUS ACTIVITY","DAKOTA ST AND PARK ST","",""
"05/27/2019","02:34","219CR0012262","SUSPICIOUS ACTIVITY","SUSPICIOUS ACTIVITY","MAUDE S CANYON TRAIL HEAD","",""
"05/27/2019","02:35","219CR0012263","ALARM - BURGLARY","ALARM - BURGLARY","************","",""
"05/27/2019","03:28","219CR0012264","MEDICAL - EMERGENCY","MEDICAL - EMERGENCY","1124 IOWA","",""
"05/27/2019","04:09","219CR0012265","DISTURBANCE","DISTURBANCE","1806 SILVERBOW HOMES","",""
"05/27/2019","04:20","219CR0012266","BURGLARY","CRIMINAL MISCHIEF","610 N ALASKA","",""
"05/27/2019","04:33","219CR0012267","SUSPICIOUS ACTIVITY","SUSPICIOUS ACTIVITY","1801 FARRAGUT","",""
"05/27/2019","05:06","219CR0012268","SUSPICIOUS ACTIVITY","SUSPICIOUS ACTIVITY","1923 MONROE AVE","",""
"05/27/2019","06:42","219CR0012269","THEFT","THEFT","2544 HARRISON AVE","",""
"05/27/2019","07:38","219CR0012270","T/S","CRIMINAL CONTEMPT","SHIELDS AND GARDEN","ARREST(s) MADE",""
"05/27/2019","08:02","219CR0012271","CIVIL PAPER SERVICE","CIVIL PAPER SERVICE","601 S IDAHO","",""
"05/27/2019","08:16","219CR0012272","CIVIL PAPER SERVICE","CIVIL PAPER SERVICE","1418 BROWNING","",""
"05/27/2019","08:21","219CR0012273","CIVIL PAPER SERVICE","CIVIL PAPER SERVICE","2115 ABERDEEN","",""
"05/27/2019","08:31","219CR0012274","CIVIL PAPER SERVICE","CIVIL PAPER SERVICE","62 W BROADWAY ST","",""
"05/27/2019","08:38","219CR0012275","CIVIL PAPER SERVICE","CIVIL PAPER SERVICE","838 ZARELDA","",""
"05/27/2019","08:44","219CR0012276","CIVIL PAPER SERVICE","CIVIL PAPER SERVICE","326 N ALABAMA","",""
"05/27/2019","08:51","219CR0012277","CIVIL PAPER SERVICE","CIVIL PAPER SERVICE","1959 FLORENCE","",""
"05/27/2019","09:12","219CR0012278","CIVIL PAPER SERVICE","CIVIL PAPER SERVICE","2915 OTTAWA","",""
"05/27/2019","09:21","219CR0012279","CIVIL PAPER SERVICE","CIVIL PAPER SERVICE","1967 OREGON ST","",""
"05/27/2019","09:31","219CR0012280","CIVIL PAPER SERVICE","CIVIL PAPER SERVICE","1018 UTAH","",""
"05/27/2019","09:37","219CR0012281","CIVIL PAPER SERVICE","CIVIL PAPER SERVICE","662 S WASHINGTON","",""
"05/27/2019","09:43","219CR0012282","SUICIDE ATTEMPT/THREAT","SUICIDE ATTEMPT/THREAT","************","",""
"05/27/2019","10:01","219CR0012283","CIVIL PAPER SERVICE","CIVIL PAPER SERVICE","410 S EXCELSIOR","",""
"05/27/2019","10:07","219CR0012284","CIVIL PAPER SERVICE","CIVIL PAPER SERVICE","306 S EXCELSIOR","",""
"05/27/2019","10:36","219CR0012285","MEDICAL - EMERGENCY","MEDICAL - EMERGENCY","1516 N MAIN","",""
"05/27/2019","10:38","219CR0012286","WANTED PERSON","WANTED PERSON","************","",""
"05/27/2019","10:56","219CR0012287","ATL","ATL","HOLMES AND ROWE RD","",""
"05/27/2019","11:15","219CR0012288","PARKING COMPLAINT","PARKING COMPLAINT","2900 HARRISON AVE","",""
"05/27/2019","12:57","219CR0012289","LED BUSINESS","LED BUSINESS","UPTOWN FOOT PATROL","",""
"05/27/2019","13:13","219CR0012290","CIVIL PAPER SERVICE","CIVIL PAPER SERVICE","3246 S DAKOTA","",""
"05/27/2019","13:14","219CR0012291","JUVENILE RUNAWAY","UNGOVERNABLE JUVENILE","1837 GARRISON AVE","",""
"05/27/2019","13:20","219CR0012293","DISTURBANCE","DISTURBANCE","901 S WASHINGTON LOT 28","",""
"05/27/2019","13:20","219CR0012292","CIVIL PAPER SERVICE","CIVIL PAPER SERVICE","601 S IDAHO","",""
"05/27/2019","13:22","219CR0012294","DISTURBANCE-NOISE","DISTURBANCE-NOISE","601 SILVER BOW HOMES","",""
"05/27/2019","13:34","219CR0012295","WANTED PERSON","WANTED PERSON","************","",""
"05/27/2019","13:38","219CR0012296","CIVIL PAPER SERVICE","CIVIL PAPER SERVICE","100 BOBCAT TRAIL","",""
"05/27/2019","14:10","219CR0012297","ALARM - BURGLARY","ALARM - BURGLARY","************","",""
"05/27/2019","14:18","219CR0012298","THEFT","THEFT, SHOPLIFT","310 W FRONT","",""
"05/27/2019","14:47","219CR0012299","ATL","ATL","3500 BLK HARRISON AVE","",""
"05/27/2019","14:54","219CR0012300","T/S","T/S","SAMSON AND HARRISON","",""
"05/27/2019","15:15","219CR0012301","MAN WITH A GUN","MAN WITH A GUN","************","",""
"05/27/2019","15:16","219CR0012302","T/S","T/S","2607 HARRISON AVE","",""
"05/27/2019","15:17","219CR0012303","T/S","T/S","2600 BLK AMHERST ST","",""
"05/27/2019","15:24","219CR0012304","T/S","T/S","2400 AMHERST","",""
"05/27/2019","15:29","219CR0012305","HARASSMENT","HARASSMENT","3041 BUSCH","",""
"05/27/2019","15:42","219CR0012306","T/S","T/S","MERCURY AND MONTANA","",""
"05/27/2019","15:51","219CR0012307","T/S","T/S","GOLD AND MONTANA","",""
"05/27/2019","15:52","219CR0012308","SUICIDE ATTEMPT/THREAT","SUICIDE ATTEMPT/THREAT","************","",""
"05/27/2019","15:58","219CR0012309","MEDICAL - EMERGENCY","MEDICAL - EMERGENCY","429 N WASHINGTON","",""
"05/27/2019","16:00","219CR0012310","ACCIDENT","ACCIDENT","ORO FINO GULCH","",""
"05/27/2019","16:15","219CR0012311","T/S","T/S","BUFFALO AND MAIN","",""
"05/27/2019","16:26","219CR0012312","T/S","T/S","600 BLK S MONTANA","",""
"05/27/2019","17:05","219CR0012313","T/S","T/S","PARK AND SHEILDS","",""
"05/27/2019","17:16","219CR0012314","T/S","T/S","GRANITE ST AND MONTANA ST","",""
"05/27/2019","17:22","219CR0012315","T/S","T/S @ THORNTON ST AND FARRELL ST","THORNTON ST AND FARRELL ST","",""
"05/27/2019","17:27","219CR0012316","DISTURBANCE","DISTURBANCE","909 W GALENA","",""
"05/27/2019","17:31","219CR0012317","T/S","T/S","MERCURY AND MONTANA","",""
"05/27/2019","17:35","219CR0012318","WELFARE CHECK","WELFARE CHECK","1012 MICHIGAN","",""
"05/27/2019","17:40","219CR0012319","FIRE - STRUCTURE","FIRE - STRUCTURE","2206 MASSACHUSETTS","",""
"05/27/2019","18:07","219CR0012320","ATL","ATL","2000 BLK ELM","",""
"05/27/2019","18:17","219CR0012321","ASSIST OTHER AGENCY","ASSIST OTHER AGENCY","SANTA CLAUSE RD AND CENTENIAL","",""
"05/27/2019","18:30","219CR0012322","JUVENILE MISC","JUVENILE MISC","************","",""
"05/27/2019","18:48","219CR0012323","ALL OTHER","ALL OTHER","1041 OREGON AVE","",""
"05/27/2019","19:13","219CR0012324","VANDALISM/CRIMINAL MISCHIEF","CRIMINAL MISCHIEF","4824 HUTCH DRIVE","",""
"05/27/2019","19:35","219CR0012325","STOLEN VEHICLE","STOLEN VEHICLE","1225 MOTORVIEW RD","",""
"05/27/2019","20:06","219CR0012326","THEFT","THEFT, SHOPLIFT","3700 HARRISON","",""
"05/27/2019","20:13","219CR0012327","ATL","ATL","900 BLK E FRONT","",""
"05/27/2019","21:16","219CR0012328","WELFARE CHECK","WELFARE CHECK","3755 HARRISON AVE","",""
"05/27/2019","21:31","219CR0012329","VANDALISM/CRIMINAL MISCHIEF","CRIMINAL MISCHIEF","1021 1/2 E FRONT","",""
"05/27/2019","21:34","219CR0012330","ALARM - MEDICAL","ALARM - MEDICAL","************","",""
"05/27/2019","21:47","219CR0012331","MISSING PERSON","MISSING PERSON","************","",""
"05/27/2019","22:05","219CR0012332","SUSPICIOUS ACTIVITY","SUSPICIOUS ACTIVITY","531 S MONTANA","",""
"05/27/2019","22:12","219CR0012333","MEDICAL - ASSIST","MEDICAL - ASSIST","************","",""
"05/27/2019","22:40","219CR0012334","ATL","ATL","SOUTH ARIZONA","",""
"05/27/2019","22:50","219CR0012335","T/S","NO LIABILITY INSURANCE IN EFF.","FRONT AND UTAH","",""
"05/27/2019","23:14","219CR0012336","DISTURBANCE","DUI DRUGS OR ALCOHOL","CONTINENTAL DR AND KOSSUTH","ARREST(s) MADE",""
"05/27/2019","23:35","219CR0012337","VANDALISM/CRIMINAL MISCHIEF","VANDALISM/CRIMINAL MISCHIEF","ELIZABETH WARREN","",""
"05/27/2019","23:54","219CR0012338","ALARM - BURGLARY","ALARM - BURGLARY","************","",""
"05/28/2019","00:11","219CR0012339","T/S","T/S","DEWEY AND LEXINGTON","",""
"05/28/2019","00:56","219CR0012340","BUSINESS CHECK","BUSINESS CHECK","1370 HARRISON","",""
"05/28/2019","01:15","219CR0012341","FRAUD","FRAUD","1400 HARRISON MT LILS","",""
"05/28/2019","01:28","219CR0012342","MEDICAL - EMERGENCY","MEDICAL - EMERGENCY","1043 COLORADO ST","",""
"05/28/2019","02:24","219CR0012343","SUSPICIOUS ACTIVITY","SUSPICIOUS ACTIVITY","207 W PARK ST","",""
"05/28/2019","02:26","219CR0012345","ASSIST OTHER AGENCY","ASSIST OTHER AGENCY","HOMESTAKE PASS","",""
"05/28/2019","02:26","219CR0012344","SUSPICIOUS ACTIVITY","SUSPICIOUS ACTIVITY","2100 CORNELL/QUALITY INN","",""
"05/28/2019","03:23","219CR0012346","SUSPICIOUS ACTIVITY","SUSPICIOUS ACTIVITY","1021 S ARIZONA","",""
"05/28/2019","03:30","219CR0012347","WELFARE CHECK","WELFARE CHECK","2600 GOODWIN","",""
"05/28/2019","03:39","219CR0012348","SUSPICIOUS ACTIVITY","SUSPICIOUS ACTIVITY","1314 FARRELL","",""
"05/28/2019","03:41","219CR0012349","CITIZEN AID","CITIZEN AID","1401 SAMPSON AVE","",""
"05/28/2019","04:02","219CR0012350","UNWANTED PERSON","UNWANTED PERSON","************","",""
"05/28/2019","04:33","219CR0012351","SUSPICIOUS ACTIVITY","SUSPICIOUS ACTIVITY","220 CURTIS ST APT 111","",""
 

BSB daily police report ending May 27, 2019

"05/24/2019","00:43","219CR0012004","TRAFFIC HAZARD","TRAFFIC HAZARD","E PARK ST AND SHIELDS AVE","",""
"05/24/2019","01:05","219CR0012005","BUSINESS CHECK","BUSINESS CHECK","1370 HARRISON","",""
"05/24/2019","01:32","219CR0012006","MEDICAL - EMERGENCY","MEDICAL - EMERGENCY","1125 S MAIN ST","",""
"05/24/2019","02:02","219CR0012007","DISTURBANCE","CRIMINAL MISCHIEF","56 E BROADWAY ST ACOMA APT","ARREST(s) MADE",""
"05/24/2019","03:14","219CR0012008","ALARM - MEDICAL","ALARM - MEDICAL","************","",""
"05/24/2019","04:08","219CR0012009","PROWLER","PROWLER","2022 S ARIZONA ST","",""
"05/24/2019","04:26","219CR0012010","UNKNOWN PROBLEM","UNKNOWN PROBLEM","909 S COLORADO ST","",""
"05/24/2019","05:49","219CR0012011","WELFARE CHECK","WELFARE CHECK","1395 JOY LANE","",""
"05/24/2019","06:18","219CR0012012","SUSPICIOUS ACTIVITY","SUSPICIOUS ACTIVITY","934 S UTAH","",""
"05/24/2019","07:15","219CR0012013","DETENTION BUSINESS","DETENTION BUSINESS","************","",""
"05/24/2019","07:28","219CR0012014","LED BUSINESS","LED BUSINESS","24 E COPPER","",""
"05/24/2019","07:53","219CR0012015","ATL","ATL","436 S MAIN APT 302","",""
"05/24/2019","08:08","219CR0012016","CIVIL PAPER SERVICE","CIVIL PAPER SERVICE","1515 OREGON","",""
"05/24/2019","08:09","219CR0012017","ABANDONED VEHICLE","ABANDONED VEHICLE","2505 FARRAGUT AVE","",""
"05/24/2019","08:29","219CR0012018","CIVIL PAPER SERVICE","CIVIL PAPER SERVICE","1301 4 MILE RD","",""
"05/24/2019","08:36","219CR0012019","CIVIL PAPER SERVICE","CIVIL PAPER SERVICE","1105 FARRELL","",""
"05/24/2019","08:40","219CR0012020","CIVIL PAPER SERVICE","CIVIL PAPER SERVICE","1515 OREGON #102","",""
"05/24/2019","09:07","219CR0012021","CIVIL PAPER SERVICE","CIVIL PAPER SERVICE","2915 OTTAWA","",""
"05/24/2019","09:15","219CR0012022","CIVIL PAPER SERVICE","CIVIL PAPER SERVICE","1718 YALE","",""
"05/24/2019","09:20","219CR0012023","CIVIL PAPER SERVICE","CIVIL PAPER SERVICE","ZINC // TRAVONIA","",""
"05/24/2019","09:23","219CR0012024","ATL","ATL","908 WAUKESHA ST","",""
"05/24/2019","09:40","219CR0012025","CIVIL PAPER SERVICE","CIVIL PAPER SERVICE","601 S IDAHO","",""
"05/24/2019","09:54","219CR0012026","DISTURBANCE","ASSAULT, SIMPLE","3100 HARRISON AVE","",""
"05/24/2019","09:55","219CR0012027","MEDICAL - EMERGENCY","MEDICAL - EMERGENCY","5315 SADDLEROCK RD","",""
"05/24/2019","10:16","219CR0012028","SUSPICIOUS ACTIVITY","SUSPICIOUS ACTIVITY","2167 S WARREN AVE","",""
"05/24/2019","10:17","219CR0012029","CITIZEN AID","CITIZEN AID","225 N ALASKA ST","",""
"05/24/2019","10:52","219CR0012030","SUSPICIOUS ACTIVITY","SUSPICIOUS ACTIVITY","2501 HARRISON AVE","",""
"05/24/2019","11:19","219CR0012031","PARKING COMPLAINT","PARKING COMPLAINT","PARK AND WYOMING ST","",""
"05/24/2019","12:24","219CR0012032","T/S","T/S","HANNIBAL AND CONTINENTAL","",""
"05/24/2019","12:25","219CR0012033","LED BUSINESS","LED BUSINESS","UPTOWN BUTTE","",""
"05/24/2019","12:39","219CR0012034","SUSPICIOUS ACTIVITY","SUSPICIOUS ACTIVITY","PARK AND WYOMING","",""
"05/24/2019","12:49","219CR0012035","HIT AND RUN","HIT AND RUN, UNATTENDED VEHICL","2085 FLORENCE AVE","",""
"05/24/2019","13:12","219CR0012036","THEFT","THEFT","500 S EMMETT","",""
"05/24/2019","13:35","219CR0012037","ATL","ATL","DEWEY BLVD AND HARRISON AVE","",""
"05/24/2019","13:44","219CR0012038","WANTED PERSON","WANTED PERSON","************","",""
"05/24/2019","13:44","219CR0012039","THEFT","THEFT, ALL OTHERS","100 GARDENS WY","",""
"05/24/2019","13:58","219CR0012040","VEHICLE INSPECTION","VEHICLE INSPECTION","15 E FREEMONT","",""
"05/24/2019","14:12","219CR0012041","THEFT","THEFT","","",""
"05/24/2019","14:13","219CR0012042","FRAUD","DECEPTIVE PRACT - CREDIT CARD","2400 CONT DR INVIGORATE","",""
"05/24/2019","14:27","219CR0012043","UNWANTED PERSON","UNWANTED PERSON","************","",""
"05/24/2019","14:28","219CR0012044","DETENTION BUSINESS","DETENTION BUSINESS","************","",""
"05/24/2019","14:30","219CR0012045","ALARM - BURGLARY","ALARM - BURGLARY","************","",""
"05/24/2019","14:39","219CR0012046","WANTED PERSON","WANTED PERSON","************","",""
"05/24/2019","14:45","219CR0012047","ALARM - BURGLARY","ALARM - BURGLARY","************","",""
"05/24/2019","14:56","219CR0012048","MC COMPLAINT","MC COMPLAINT","3100 BLK ARGYLE","",""
"05/24/2019","14:59","219CR0012049","THEFT","THEFT","1921 DEWEY BLVD ASIA BUFFET","",""
"05/24/2019","15:07","219CR0012051","HARASSMENT","HARASSMENT","2607 HARRISON ACE HARDWARE","",""
"05/24/2019","15:07","219CR0012050","ALARM - BURGLARY","ALARM - BURGLARY","************","",""
"05/24/2019","15:08","219CR0012052","CHILD ABUSE","CHILD ABUSE","************","",""
"05/24/2019","15:21","219CR0012053","ATL","ATL","E PACIFIC AND MAIN","",""
"05/24/2019","15:28","219CR0012054","THEFT","DECEPTIVE PRACT - CREDIT CARD","26 E SILVER ST","",""
"05/24/2019","15:29","219CR0012055","SUSPICIOUS ACTIVITY","SUSPICIOUS ACTIVITY","COLORADO AND FREMONT","",""
"05/24/2019","16:31","219CR0012057","CIVIL PAPER SERVICE","CIVIL PAPER SERVICE","155 W QUARTZ BSB DETENTION CEN","",""
"05/24/2019","16:32","219CR0012058","VANDALISM/CRIMINAL MISCHIEF","CRIMINAL MISCHIEF","420 N JACKSON","",""
"05/24/2019","16:33","219CR0012059","HARASSMENT","HARASSMENT","316 W PARK MOTHERLODE THEATRE","",""
"05/24/2019","16:36","219CR0012060","DISTURBANCE","DISTURBANCE","205 W GRANITE","",""
"05/24/2019","16:59","219CR0012061","ALARM - ROBBERY","ALARM - ROBBERY","2801 HARRISON ZIP TRIP","",""
"05/24/2019","17:06","219CR0012062","ATL","ATL","3941 WYNNE","",""
"05/24/2019","17:27","219CR0012063","BUSINESS CHECK","BUSINESS CHECK","58 W PARK ST PARKING GARAGE","",""
"05/24/2019","17:32","219CR0012064","JUVENILE MISC","JUVENILE MISC","************","",""
"05/24/2019","17:33","219CR0012065","VANDALISM/CRIMINAL MISCHIEF","CRIMINAL MISCHIEF","1303 C STREET","",""
"05/24/2019","17:44","219CR0012066","THEFT","THEFT FROM MOTOR VEHICLE","1021 1/2 E FRONT","",""
"05/24/2019","18:01","219CR0012067","ANIMAL COMPLAINT","ANIMAL COMPLAINT","HOLMES AND WARREN","",""
"05/24/2019","18:03","219CR0012068","VANDALISM/CRIMINAL MISCHIEF","VANDALISM/CRIMINAL MISCHIEF","2504 PARROT","",""
"05/24/2019","18:07","219CR0012069","ALARM - BURGLARY","ALARM - BURGLARY","************","",""
"05/24/2019","18:51","219CR0012070","SUSPICIOUS ACTIVITY","SUSPICIOUS ACTIVITY","1954 CAROLINA","",""
"05/24/2019","18:54","219CR0012071","SUSPICIOUS ACTIVITY","SUSPICIOUS ACTIVITY","2500 MASSACHUSETTS AVE","",""
"05/24/2019","19:01","219CR0012072","MEDICAL - EMERGENCY","MEDICAL - EMERGENCY","300 MOUNT HIGHLAND DR","",""
"05/24/2019","19:06","219CR0012073","SUICIDE ATTEMPT/THREAT","SUICIDE ATTEMPT/THREAT","************","",""
"05/24/2019","19:12","219CR0012074","ALARM-DURESS","ALARM-DURESS","************","",""
"05/24/2019","19:17","219CR0012075","THEFT","THEFT, SHOPLIFT","3901 HARRISON AVE","",""
"05/24/2019","19:20","219CR0012076","DISTURBANCE","CRIMINAL MISCHIEF","207 W PARK ST","ARREST(s) MADE",""
"05/24/2019","19:48","219CR0012077","CHILD ABUSE","CHILD ABUSE","************","",""
"05/24/2019","20:09","219CR0012078","VANDALISM/CRIMINAL MISCHIEF","CRIMINAL MISCHIEF","1039 W BROADWAY","",""
"05/24/2019","20:54","219CR0012079","JUVENILE MISC","JUVENILE MISC","************","",""
"05/24/2019","21:06","219CR0012080","SUSPICIOUS ACTIVITY","SUSPICIOUS ACTIVITY","2971 TEAL # 10","",""
"05/24/2019","21:08","219CR0012081","JUVENILE MISC","UNGOVERNABLE JUVENILE","522 N MAIN","ARREST(s) MADE",""
"05/24/2019","21:13","219CR0012082","MEDICAL - EMERGENCY","MEDICAL - EMERGENCY","104 COUNTRY CLUB LANE","",""
"05/24/2019","21:16","219CR0012083","DETENTION BUSINESS","DETENTION BUSINESS","************","",""
"05/24/2019","21:22","219CR0012084","WELFARE CHECK","WELFARE CHECK","100 GARDENS WAY #149","",""
"05/24/2019","21:28","219CR0012085","MEDICAL - EMERGENCY","MEDICAL - EMERGENCY","2436 YALE","",""
"05/24/2019","21:38","219CR0012086","T/S","DRIVE WHILE SUSP. OR REVOKED","MONTANA ST AND SILVER ST","",""
"05/24/2019","21:45","219CR0012087","FRAUD","THEFT, ALL OTHERS","2125 S ARIZONA","",""
"05/24/2019","21:55","219CR0012088","VANDALISM/CRIMINAL MISCHIEF","CRIMINAL MISCHIEF","827 W GRANITE","",""
"05/24/2019","21:57","219CR0012089","DISTURBANCE-NOISE","DISTURBANCE-NOISE","601 SILVERBOW HOMES","",""
"05/24/2019","22:03","219CR0012090","T/S","T/S","FRONT AND DAKOTA ST","",""
"05/24/2019","22:07","219CR0012091","T/S","OPERATING WITHOUT CURRENT REGI","2ND ANDARIZONA","",""
"05/24/2019","22:16","219CR0012092","BURGLARY","BURGLARY","740 W GALENA ST","",""
"05/24/2019","22:25","219CR0012093","T/S","T/S","TEXAS AND CIVIC CENTER","",""
"05/24/2019","22:30","219CR0012094","JUVENILE MISC","JUVENILE MISC","************","",""
"05/24/2019","22:34","219CR0012095","DISTURBANCE","DISTURBANCE","222 E PARK SPARKYS GARAGE","",""
"05/24/2019","22:49","219CR0012096","SUSPICIOUS ACTIVITY","SUSPICIOUS ACTIVITY","531 S MONTANA","",""
"05/24/2019","23:00","219CR0012098","DISTURBANCE-NOISE","DISTURBANCE-NOISE","1501 WHITMAN","",""
"05/24/2019","23:00","219CR0012097","SUSPICIOUS ACTIVITY","SUSPICIOUS ACTIVITY","900 BLK S WASHINGTON","",""
"05/24/2019","23:29","219CR0012099","SUSPICIOUS ACTIVITY","SUSPICIOUS ACTIVITY","1301 HARRISON STOKES MARKET","",""
"05/24/2019","23:30","219CR0012100","T/S","T/S","DEWEY AND ROWE RD","",""
"05/24/2019","23:48","219CR0012101","T/S","T/S","MAIN ST AND FREEMONT ST","",""
"05/24/2019","23:55","219CR0012102","T/S","NO LIABILITY INSURANCE IN EFF.","FRONT AND MAIN","",""
"05/24/2019","23:57","219CR0012103","DISTURBANCE","PFMA - REASONABLE APPREHENSION","2436 YALE","ARREST(s) MADE",""
"05/25/2019","01:06","219CR0012104","DISTURBANCE","DISTURBANCE","541 S MAIN SPUD MCGEES","",""
"05/25/2019","01:14","219CR0012105","DISTURBANCE","DISTURBANCE","131 W COPPER","",""
"05/25/2019","01:30","219CR0012106","ASSAULT","PFMA - MINOR INJ/PHYSICAL CONT","1950 SILVERBOW BLVD","ARREST(s) MADE",""
"05/25/2019","01:57","219CR0012107","ASSAULT","ASSAULT","************","",""
"05/25/2019","02:08","219CR0012108","ACCIDENT- INJURY(MHP)","ACCIDENT- INJURY(MHP)","400 S CLARK","",""
"05/25/2019","02:18","219CR0012109","CITIZEN AID","CITIZEN AID","220 N WYOMING","",""
"05/25/2019","02:43","219CR0012110","TRAFFIC HAZARD","TRAFFIC HAZARD","E PARK AND SHIELDS","",""
"05/25/2019","03:24","219CR0012111","SUSPICIOUS ACTIVITY","SUSPICIOUS ACTIVITY","531 S MONTANA ST","",""
"05/25/2019","03:53","219CR0012112","BURGLARY","BURGLARY","2812 WALNUT ST","",""
"05/25/2019","03:58","219CR0012113","DISTURBANCE","DISTURBANCE","3208 EDWARDS","",""
"05/25/2019","03:59","219CR0012114","SUSPICIOUS ACTIVITY","SUSPICIOUS ACTIVITY","3025 OTTAWA","",""
"05/25/2019","04:00","219CR0012115","T/S","POSSESS DRUG PARAPHERNALIA","FIRST AND EMMA","ARREST(s) MADE",""
"05/25/2019","04:46","219CR0012116","PROWLER","PROWLER","111 SILVER BOW HOMES","",""
"05/25/2019","05:55","219CR0012117","SUSPICIOUS ACTIVITY","SUSPICIOUS ACTIVITY","3544 HARRISON UNIVERSAL ATHLET","",""
"05/25/2019","07:39","219CR0012118","CIVIL PAPER SERVICE","CIVIL PAPER SERVICE","1557 BROWNING ST","",""
"05/25/2019","08:06","219CR0012120","WELFARE CHECK","WELFARE CHECK","728 NEVADA AVE","",""
"05/25/2019","08:32","219CR0012121","CIVIL PAPER SERVICE","CIVIL PAPER SERVICE","1957 OREGON","",""
"05/25/2019","08:42","219CR0012122","CIVIL STANDBY","CIVIL STANDBY","122 ROCKY MOUNTAIN LANE","",""
"05/25/2019","09:04","219CR0012123","CIVIL PAPER SERVICE","CIVIL PAPER SERVICE","33 E IRON","",""
"05/25/2019","09:08","219CR0012124","CIVIL PAPER SERVICE","CIVIL PAPER SERVICE","1718 YALE","",""
"05/25/2019","09:17","219CR0012125","STOLEN VEHICLE","STOLEN VEHICLE","3766 HARRISON","",""
"05/25/2019","09:33","219CR0012126","T/S","CRIMINAL CONTEMPT","MONTANA ST AND ALUMINUM ST","ARREST(s) MADE",""
"05/25/2019","09:34","219CR0012127","BUSINESS CHECK","POSSESSION OF DANGEROUS DRUGS","531 S MONTANA ST","ARREST(s) MADE",""
"05/25/2019","09:43","219CR0012128","MEDICAL - EMERGENCY","MEDICAL - EMERGENCY","832 COLORADO ST","",""
"05/25/2019","09:49","219CR0012129","VANDALISM/CRIMINAL MISCHIEF","CRIMINAL MISCHIEF","633 W GALENA","",""
"05/25/2019","09:51","219CR0012130","FIRE - OTHER","FIRE - OTHER","1325 FARRELL ST","",""
"05/25/2019","09:57","219CR0012131","T/S","T/S @ 310 W FRONT ST","310 W FRONT ST","",""
"05/25/2019","10:05","219CR0012132","T/S","T/S @ GILMAN AND BUSCH","GILMAN AND BUSCH","",""
"05/25/2019","10:16","219CR0012133","T/S","T/S @ 2300 BLK FLORENCE AVE","2300 BLK FLORENCE AVE","",""
"05/25/2019","10:24","219CR0012134","T/S","T/S @ 2000 BLK HARRISON","2000 BLK HARRISON","",""
"05/25/2019","10:50","219CR0012135","T/S","T/S @ 2500 MASSACHUSETTES AVE","2500 MASSACHUSETTES AVE","",""
"05/25/2019","10:54","219CR0012136","SUSPICIOUS ACTIVITY","SUSPICIOUS ACTIVITY","1317 S MONTANA","",""
"05/25/2019","10:55","219CR0012137","T/S","T/S @ HOWARD AND AMHERST","HOWARD AND AMHERST","",""
"05/25/2019","11:15","219CR0012138","LED BUSINESS","LED BUSINESS","400 S CLARK ST","",""
"05/25/2019","11:44","219CR0012139","MEDICAL - EMERGENCY","MEDICAL - EMERGENCY","1125 S MAIN ST #407","",""
"05/25/2019","11:48","219CR0012140","VANDALISM/CRIMINAL MISCHIEF","VANDALISM/CRIMINAL MISCHIEF","100 WILD HORSE MEADOWS","",""
"05/25/2019","12:28","219CR0012141","VANDALISM/CRIMINAL MISCHIEF","VANDALISM/CRIMINAL MISCHIEF","207 W PARK ST","",""
"05/25/2019","12:59","219CR0012142","MEDICAL - EMERGENCY","MEDICAL - EMERGENCY","154 W IRON","",""
"05/25/2019","13:21","219CR0012143","ANIMAL COMPLAINT","ANIMAL COMPLAINT","2930 EAGLE ST","",""
"05/25/2019","13:23","219CR0012144","TRAFFIC HAZARD","TRAFFIC HAZARD","CHULA ST AND ROWE RD","",""
"05/25/2019","13:27","219CR0012145","SUSPICIOUS ACTIVITY","SUSPICIOUS ACTIVITY","MT HIGHLAND DR","",""
"05/25/2019","13:33","219CR0012146","DRUGS","DRUGS","************","",""
"05/25/2019","13:41","219CR0012147","ATL","ATL","ELIZ WARREN AND HARRISON","",""
"05/25/2019","13:50","219CR0012148","SUSPICIOUS ACTIVITY","SUSPICIOUS ACTIVITY","1125 S MAIN ST #109","",""
"05/25/2019","14:13","219CR0012149","INFORMATION ONLY","INFORMATION ONLY","PARK AND SHIELDS","",""
"05/25/2019","14:23","219CR0012150","JUVENILE MISC","JUVENILE MISC","************","",""
"05/25/2019","14:33","219CR0012151","ACCIDENT - INJURY","ACCIDENT - INJURY","I15 MM 127 NB","",""
"05/25/2019","14:48","219CR0012152","TRAFFIC","TRAFFIC","MERCURY AND MONTANA","",""
"05/25/2019","15:10","219CR0012153","TRAFFIC","TRAFFIC","HOLMES AND HILL","",""
"05/25/2019","15:21","219CR0012154","UNWANTED PERSON","UNWANTED PERSON","************","",""
"05/25/2019","15:42","219CR0012155","FOUND PROPERTY","FOUND PROPERTY","************","",""
"05/25/2019","16:01","219CR0012156","MEDICAL - EMERGENCY","MEDICAL - EMERGENCY","CONTINENTAL DR NORTH OF MT 2","",""
"05/25/2019","16:16","219CR0012157","JUVENILE MISC","JUVENILE MISC","************","",""
"05/25/2019","16:23","219CR0012158","SUSPICIOUS ACTIVITY","SUSPICIOUS ACTIVITY","BASIN CR RD // BLACK ANGUS DR","",""
"05/25/2019","16:28","219CR0012159","THEFT","THEFT, SHOPLIFT","3901 HARRISON WALMART","",""
"05/25/2019","16:32","219CR0012160","ACCIDENT-MHP","ACCIDENT-MHP","I90 MM 231 EB","",""
"05/25/2019","17:02","219CR0012161","CITIZEN AID","CITIZEN AID","122 ROCKY MTN LANE","",""
"05/25/2019","17:19","219CR0012162","RESTRAINING ORDER VIOLATION","RESTRAINING ORDER VIOLATION","************","",""
"05/25/2019","17:33","219CR0012163","JUVENILE RUNAWAY","UNGOVERNABLE JUVENILE","1837 GARRISON","ARREST(s) MADE",""
"05/25/2019","17:50","219CR0012164","ASSAULT","ASSAULT","************","",""
"05/25/2019","18:21","219CR0012165","ASSIST OTHER AGENCY","ASSIST OTHER AGENCY","I90 MM 237 238 WB","",""
"05/25/2019","18:29","219CR0012166","SUSPICIOUS ACTIVITY","SUSPICIOUS ACTIVITY","901 E FRONT ST","",""
"05/25/2019","18:33","219CR0012167","MEDICAL - EMERGENCY","MEDICAL - EMERGENCY","1628 WHITMAN","",""
"05/25/2019","18:35","219CR0012168","VANDALISM/CRIMINAL MISCHIEF","VANDALISM/CRIMINAL MISCHIEF","310 E FRONT ST SAFEWAY","",""
"05/25/2019","18:39","219CR0012169","WELFARE CHECK","WELFARE CHECK","1640 THOMAS AVE #12","",""
"05/25/2019","18:47","219CR0012170","UNWANTED PERSON","CRIMINAL TRESPASS TO PROPERTY","3901 HARRISON AVE","ARREST(s) MADE",""
"05/25/2019","19:12","219CR0012171","DISTURBANCE","DISTURBANCE","1000 BLK S MONTANA","",""
"05/25/2019","19:59","219CR0012172","DISTURBANCE","PFMA - REASONABLE APPREHENSION","160 LARKSPUR","ARREST(s) MADE",""
"05/25/2019","20:04","219CR0012173","THEFT","THEFT","919 W GOLD","",""
"05/25/2019","20:29","219CR0012174","SUSPICIOUS ACTIVITY","SUSPICIOUS ACTIVITY","501 S EXCELSIOR AVE","",""
"05/25/2019","21:34","219CR0012175","ALARM - BURGLARY","ALARM - BURGLARY","************","",""
"05/25/2019","21:38","219CR0012176","JUVENILE RUNAWAY","JUVENILE RUNAWAY","************","",""
"05/25/2019","21:38","219CR0012177","JUVENILE RUNAWAY","JUVENILE RUNAWAY","************","",""
"05/25/2019","21:43","219CR0012178","SUSPICIOUS ACTIVITY","SUSPICIOUS ACTIVITY","220 CURTIS","",""
"05/25/2019","21:46","219CR0012179","RESTRAINING ORDER VIOLATION","VIOLATION OF PROTECTION ORDER","1126 W GRANITE","",""
"05/25/2019","21:53","219CR0012180","MEDICAL - EMERGENCY","MEDICAL - EMERGENCY","178 TRINITY LOOP","",""
"05/25/2019","21:54","219CR0012181","MEDICAL - EMERGENCY","MEDICAL - EMERGENCY","2 1/2 E COPPER","",""
"05/25/2019","22:00","219CR0012182","MEDICAL - EMERGENCY","MEDICAL - EMERGENCY","307 N WASHINGTON","",""
"05/25/2019","22:08","219CR0012183","BUSINESS CHECK","BUSINESS CHECK","531 S MONTANA","",""
"05/25/2019","22:11","219CR0012184","WELFARE CHECK","WELFARE CHECK","3444 SANDERS","",""
"05/25/2019","22:27","219CR0012185","WANTED PERSON","WANTED PERSON","************","",""
"05/25/2019","22:28","219CR0012186","T/S","T/S @ MONTANA AND PARK ST","MONTANA AND PARK ST","",""
"05/25/2019","22:43","219CR0012187","ABANDONED VEHICLE","ABANDONED VEHICLE","1200 BLK DELAWARE","",""
"05/25/2019","22:59","219CR0012188","TRAFFIC","TRAFFIC","2600 BLK GOODWIN","",""
"05/25/2019","23:11","219CR0012189","JUVENILE MISC","JUVENILE MISC","************","",""
"05/25/2019","23:45","219CR0012190","SUSPICIOUS ACTIVITY","SUSPICIOUS ACTIVITY","SECOND AND MARYLAND","",""
"05/26/2019","00:13","219CR0012191","SUSPICIOUS ACTIVITY","SUSPICIOUS ACTIVITY","1 HOLIDAY PARK LAQUINTA INN","",""
"05/26/2019","00:26","219CR0012192","SUSPICIOUS ACTIVITY","SUSPICIOUS ACTIVITY","2ND ST AND ATLANTIC ST","",""
"05/26/2019","00:56","219CR0012193","ACCIDENT","ACCIDENT","3901 HARRISON AVE","",""
"05/26/2019","01:23","219CR0012194","SUSPICIOUS ACTIVITY","POSSESS ALCOHOL OR INTOXICANT","GALENA AND MONTANA","",""
"05/26/2019","01:55","219CR0012195","T/S","T/S @ GALENA AND MAIN","GALENA AND MAIN","",""
"05/26/2019","01:58","219CR0012196","DISTURBANCE","PFMA - REASONABLE APPREHENSION","2690 COLUSA","ARREST(s) MADE",""
"05/26/2019","02:24","219CR0012197","SUSPICIOUS ACTIVITY","SUSPICIOUS ACTIVITY","832 ZARELDA","",""
"05/26/2019","02:34","219CR0012198","T/S","DUI DRUGS OR ALCOHOL","EXCEL AND DALY","ARREST(s) MADE",""
"05/26/2019","03:10","219CR0012199","DOMESTIC ABUSE","DOMESTIC ABUSE","************","",""
"05/26/2019","05:02","219CR0012200","DISTURBANCE","DISTURBANCE","207 W PARK PARK ST LAUNDRY","",""
"05/26/2019","07:14","219CR0012201","THEFT","THEFT","1000 GRIZZLY TRAIL","",""
"05/26/2019","07:47","219CR0012202","SUSPICIOUS ACTIVITY","SUSPICIOUS ACTIVITY","50 HAIL COLUMBIA GULCH RD","",""
"05/26/2019","07:58","219CR0012203","MEDICAL - EMERGENCY","MEDICAL - EMERGENCY","1402 SILVERBOW HOMES","",""
"05/26/2019","08:12","219CR0012204","CITIZEN AID","CITIZEN AID","PLATINUM AND MONTANA","",""
"05/26/2019","08:13","219CR0012205","ANIMAL COMPLAINT","ANIMAL COMPLAINT","2200 BLK S DAKOTA","",""
"05/26/2019","08:36","219CR0012206","CIVIL PAPER SERVICE","CIVIL PAPER SERVICE","306 SOUTH EXCELSIOR","",""
"05/26/2019","08:47","219CR0012207","CIVIL PAPER SERVICE","CIVIL PAPER SERVICE","1718 YALE","",""
"05/26/2019","09:01","219CR0012208","CIVIL PAPER SERVICE","CIVIL PAPER SERVICE","429 W PARK ST","",""
"05/26/2019","09:17","219CR0012209","CIVIL PAPER SERVICE","CIVIL PAPER SERVICE","1967 OREGON ST","",""
"05/26/2019","09:19","219CR0012210","SUSPICIOUS ACTIVITY","SUSPICIOUS ACTIVITY","2700 BLK OF YALE","",""
"05/26/2019","09:29","219CR0012211","DISTURBANCE","DISTURBANCE","55 BASIN CREEK RD","",""
"05/26/2019","09:48","219CR0012212","INTIMIDATION","INTIMIDATION","2100 CORNELL AV","",""
"05/26/2019","09:52","219CR0012213","ALARM - BURGLARY","ALARM - BURGLARY","************","",""
"05/26/2019","10:15","219CR0012214","HARASSMENT","HARASSMENT","IOWA AND 1ST","",""
"05/26/2019","10:53","219CR0012215","WANTED PERSON","WANTED PERSON","************","",""
"05/26/2019","11:09","219CR0012216","JUVENILE RUNAWAY","UNGOVERNABLE JUVENILE","1837 GARRISON ST","ARREST(s) MADE",""
"05/26/2019","11:23","219CR0012217","CRIMINAL TRESPASS","CRIMINAL TRESPASS","3110 ARGYLE ST","",""
"05/26/2019","12:01","219CR0012218","BUSINESS CHECK","BUSINESS CHECK","58 W PARK","",""
"05/26/2019","12:11","219CR0012219","DISTURBANCE-NOISE","DISTURBANCE-NOISE","2645 GOODWIN","",""
"05/26/2019","12:16","219CR0012220","WELFARE CHECK","WELFARE CHECK","3901 HARRISON AVE","",""
"05/26/2019","12:36","219CR0012221","LED BUSINESS","LED BUSINESS","UPTOWN FOOT PATROL","",""
"05/26/2019","12:47","219CR0012222","DISTURBANCE","PFMA - MINOR INJ/PHYSICAL CONT","327 GRANITE MOUNTAIN RD","",""
"05/26/2019","13:31","219CR0012223","DISTURBANCE","DISTURBANCE","660 S WASHINGTON","",""
"05/26/2019","14:35","219CR0012224","WELFARE CHECK","WELFARE CHECK","S EXCELSCIOR // CENTENNIAL","",""
"05/26/2019","14:52","219CR0012225","VANDALISM/CRIMINAL MISCHIEF","CRIMINAL MISCHIEF","2207 OREGON AVE","",""
"05/26/2019","14:59","219CR0012226","ATL","ATL","CONTINENTAL AND MT HIGHLAND DR","",""
"05/26/2019","15:01","219CR0012227","CIVIL STANDBY","CIVIL STANDBY","1307 SILVER BOW HOMES","",""
"05/26/2019","15:16","219CR0012228","MEDICAL - EMERGENCY","MEDICAL - EMERGENCY","I15 NB MM 151","",""
"05/26/2019","15:24","219CR0012229","ATL","ATL","FRONT AND HARRISON","",""
"05/26/2019","15:45","219CR0012230","ACCIDENT","ACCIDENT","2051 HARRISON","",""
"05/26/2019","16:16","219CR0012231","HARASSMENT","HARASSMENT","312 1/2 W ALUMINUM","",""
"05/26/2019","16:31","219CR0012232","THEFT","THEFT","BERT MOONEY AIRPORT","",""
"05/26/2019","16:42","219CR0012233","ATL","ATL","COBBAN AND CALIFORNIA","",""
"05/26/2019","16:53","219CR0012234","ALARM - BURGLARY","ALARM - BURGLARY","************","",""
"05/26/2019","17:35","219CR0012235","MEDICAL - EMERGENCY","MEDICAL - EMERGENCY","3 BEARS ALASKA 3 BEARS DRIVE","",""
"05/26/2019","17:38","219CR0012236","JUVENILE MISC","JUVENILE MISC","************","",""
"05/26/2019","17:46","219CR0012237","ALL OTHER","ALL OTHER","740 W GALENA","",""
"05/26/2019","17:54","219CR0012238","ALL OTHER","ALL OTHER","2100 CORNELL AVE #168","",""
"05/26/2019","18:01","219CR0012239","WELFARE CHECK","WELFARE CHECK","I15 MM 124 NBND","",""
"05/26/2019","18:07","219CR0012240","HIT AND RUN","FAIL TO ID, SELF AND VEHICLE","3500 HARRISON","",""
"05/26/2019","18:39","219CR0012241","MEDICAL - EMERGENCY","MEDICAL - EMERGENCY","2550 MOULTON ST","",""
"05/26/2019","18:48","219CR0012242","ALARM - BURGLARY","ALARM - BURGLARY","************","",""
"05/26/2019","18:53","219CR0012243","THEFT","THEFT","943 PLACER ST","",""
"05/26/2019","19:11","219CR0012244","ALL OTHER","ALL OTHER","130 WALDRON DRIVE","",""
"05/26/2019","19:15","219CR0012245","THEFT","MOTOR VEHICLE THEFT","105 GERMAN GULCH","",""
"05/26/2019","20:08","219CR0012246","ALARM - MEDICAL","ALARM - MEDICAL","************","",""
"05/26/2019","21:08","219CR0012247","THEFT","THEFT","1950 SILVERBOW BLVD","",""
"05/26/2019","21:52","219CR0012248","ALARM - BURGLARY","ALARM - BURGLARY","************","",""
"05/26/2019","22:12","219CR0012249","THEFT","THEFT, SHOPLIFT","SAFEWAY/2500 MASS","",""
"05/26/2019","22:38","219CR0012250","SUSPICIOUS ACTIVITY","SUSPICIOUS ACTIVITY","2909 CARTER","",""
"05/26/2019","22:54","219CR0012251","SUSPICIOUS ACTIVITY","SUSPICIOUS ACTIVITY","4 MILE AND S WARREN","",""
"05/26/2019","23:10","219CR0012252","ASSIST OTHER AGENCY","ASSIST OTHER AGENCY","2906 ARGYLE ST","",""
"05/26/2019","23:14","219CR0012253","VANDALISM/CRIMINAL MISCHIEF","VANDALISM/CRIMINAL MISCHIEF","BUTTE HIGH PARKING LOT","",""
"05/26/2019","23:38","219CR0012254","SUSPICIOUS ACTIVITY","SUSPICIOUS ACTIVITY","MT CON","",""
"05/26/2019","23:45","219CR0012255","SUSPICIOUS ACTIVITY","SUSPICIOUS ACTIVITY","BUFFALO AND MONTANA","",""
"05/26/2019","23:53","219CR0012256","BUSINESS CHECK","BUSINESS CHECK","160 LARKSPUR LN","",""
"05/26/2019","23:57","219CR0012257","SUSPICIOUS ACTIVITY","SUSPICIOUS ACTIVITY","505 S WASHINGTON","",""
"05/27/2019","01:05","219CR0012258","BUSINESS CHECK","BUSINESS CHECK","1370 HARRISON","",""
"05/27/2019","01:17","219CR0012259","BUSINESS CHECK","BUSINESS CHECK","3700 HARRISON AVE","",""
"05/27/2019","01:31","219CR0012260","ALL OTHER","ALL OTHER","FARRELL AND MERCURY","",""
"05/27/2019","01:42","219CR0012261","SUSPICIOUS ACTIVITY","SUSPICIOUS ACTIVITY","DAKOTA ST AND PARK ST","",""
"05/27/2019","02:34","219CR0012262","SUSPICIOUS ACTIVITY","SUSPICIOUS ACTIVITY","MAUDE S CANYON TRAIL HEAD","",""
"05/27/2019","02:35","219CR0012263","ALARM - BURGLARY","ALARM - BURGLARY","************","",""
"05/27/2019","03:28","219CR0012264","MEDICAL - EMERGENCY","MEDICAL - EMERGENCY","1124 IOWA","",""
"05/27/2019","04:09","219CR0012265","DISTURBANCE","DISTURBANCE","1806 SILVERBOW HOMES","",""
"05/27/2019","04:20","219CR0012266","BURGLARY","BURGLARY, RESIDENCE","610 N ALASKA","",""
"05/27/2019","04:33","219CR0012267","SUSPICIOUS ACTIVITY","SUSPICIOUS ACTIVITY","1801 FARRAGUT","",""
"05/27/2019","05:06","219CR0012268","SUSPICIOUS ACTIVITY","SUSPICIOUS ACTIVITY","1923 MONROE AVE","",""
 

BSB police report ending May 24, 2019

"05/23/2019","00:29","219CR0011924","FIRE- GAS ODOR","FIRE- GAS ODOR","628 1/2 W GRANITE","",""
"05/23/2019","00:48","219CR0011925","ATL","ATL","3700 HARRISON TOWN PUMP","",""
"05/23/2019","01:04","219CR0011926","T/S","T/S","FRONT AND MAIN","",""
"05/23/2019","02:29","219CR0011928","BUSINESS CHECK","BUSINESS CHECK","531 S MONTANA","",""
"05/23/2019","02:52","219CR0011929","DISTURBANCE","DISTURBANCE","1324 HARRISON AVE","",""
"05/23/2019","03:04","219CR0011930","VANDALISM/CRIMINAL MISCHIEF","THEFT FROM MOTOR VEHICLE","2900 ELM BEE HIVE HOMES","",""
"05/23/2019","04:20","219CR0011931","HARASSMENT","HARASSMENT","1411 SILVER BOW HOMES","",""
"05/23/2019","04:45","219CR0011932","SUSPICIOUS ACTIVITY","SUSPICIOUS ACTIVITY","1932 OREGON AVE","",""
"05/23/2019","07:21","219CR0011933","CIVIL PAPER SERVICE","CIVIL PAPER SERVICE","1018 UTAH","",""
"05/23/2019","07:34","219CR0011934","DISTURBANCE-NOISE","DISTURBANCE-NOISE","1511 SILVER BOW HOMES","",""
"05/23/2019","08:03","219CR0011935","CIVIL PAPER SERVICE","CIVIL PAPER SERVICE","3033 BUSCH ST APT2","",""
"05/23/2019","08:09","219CR0011936","WANTED PERSON","OBSTRUCTING A PEACE OFFICER","GRAND // ELM","ARREST(s) MADE",""
"05/23/2019","08:17","219CR0011937","ACCIDENT","ACCIDENT","118 W BROADWAY","",""
"05/23/2019","08:24","219CR0011938","THEFT","THEFT","1515 OREGON AVE APT 113","",""
"05/23/2019","08:55","219CR0011939","LED BUSINESS","LED BUSINESS","58 W PARK ST","",""
"05/23/2019","09:05","219CR0011940","CIVIL PAPER SERVICE","CIVIL PAPER SERVICE","100 GARDENS WAY #120","",""
"05/23/2019","09:07","219CR0011941","CIVIL STANDBY","CIVIL STANDBY","2725 SILVER BOW","",""
"05/23/2019","09:17","219CR0011942","ALARM - MEDICAL","ALARM - MEDICAL","************","",""
"05/23/2019","09:18","219CR0011943","CIVIL PAPER SERVICE","CIVIL PAPER SERVICE","2609 HARRISON AVE","",""
"05/23/2019","09:34","219CR0011944","CIVIL PAPER SERVICE","CIVIL PAPER SERVICE","1105 FARRELL","",""
"05/23/2019","09:45","219CR0011945","DETENTION BUSINESS","DETENTION BUSINESS","************","",""
"05/23/2019","10:08","219CR0011946","ANIMAL COMPLAINT","ANIMAL COMPLAINT","I15 MM 94 NB","",""
"05/23/2019","10:16","219CR0011947","FRAUD","FRAUD","225 N ALASKA ST","",""
"05/23/2019","10:36","219CR0011948","SUSPICIOUS ACTIVITY","SUSPICIOUS ACTIVITY","1920 ELIZABETH WARREN AVE","",""
"05/23/2019","10:38","219CR0011949","MEDICAL - EMERGENCY","MEDICAL - EMERGENCY","1125 S MAIN #311","",""
"05/23/2019","10:49","219CR0011950","FOUND PROPERTY","FOUND PROPERTY","************","",""
"05/23/2019","11:04","219CR0011951","SUSPICIOUS ACTIVITY","SUSPICIOUS ACTIVITY","1920 ELIZABETH WARREN MT LILS","",""
"05/23/2019","11:10","219CR0011952","ASSIST OTHER AGENCY","ASSIST OTHER AGENCY","3883 HARRISON AVE","",""
"05/23/2019","11:19","219CR0011953","MEDICAL - EMERGENCY","MEDICAL - EMERGENCY","3611 WYNNE AVE","",""
"05/23/2019","11:27","219CR0011954","DISTURBANCE","DISTURBANCE","81 W PARK ST","",""
"05/23/2019","11:31","219CR0011955","ALL OTHER","ALL OTHER","3883 HARRISON AVE","",""
"05/23/2019","11:40","219CR0011956","RESTRAINING ORDER VIOLATION","RESTRAINING ORDER VIOLATION","************","",""
"05/23/2019","11:52","219CR0011957","THEFT","THEFT","2101 ARGYLE","",""
"05/23/2019","11:54","219CR0011958","VEHICLE INSPECTION","VEHICLE INSPECTION","508 LUPINE LANE","",""
"05/23/2019","12:01","219CR0011959","ACCIDENT","CHANGING LANES WHEN UNSAFE","DEWEY BLVD AND HARRISON AVE","",""
"05/23/2019","12:05","219CR0011960","CIVIL PAPER SERVICE","CIVIL PAPER SERVICE","601 SILVERBOW HOMES","",""
"05/23/2019","12:06","219CR0011961","ABANDONED VEHICLE","ABANDONED VEHICLE","15 PENNEY LANE","",""
"05/23/2019","12:27","219CR0011962","THEFT","THEFT","225 N ALSASKA","",""
"05/23/2019","12:28","219CR0011963","HARASSMENT","HARASSMENT","","",""
"05/23/2019","12:44","219CR0011964","THEFT","BURGLARY, RESIDENCE","2936 ARGYLE","",""
"05/23/2019","12:44","219CR0011965","THEFT","THEFT, ALL OTHERS","206 S EXCELSIOR","",""
"05/23/2019","13:01","219CR0011966","DRUGS","DRUGS","************","",""
"05/23/2019","13:06","219CR0011967","LED BUSINESS","LED BUSINESS","UPTOWN FOOT PATROL","",""
"05/23/2019","13:10","219CR0011968","WANTED PERSON","WANTED PERSON","************","",""
"05/23/2019","13:15","219CR0011969","INFORMATION ONLY","INFORMATION ONLY","654 S MAIN ST","",""
"05/23/2019","13:38","219CR0011970","THEFT","THEFT, PICKPOCKET","848 W PARK ST","",""
"05/23/2019","13:48","219CR0011971","FOUND PROPERTY","FOUND PROPERTY","************","",""
"05/23/2019","13:50","219CR0011972","ACCIDENT","ACCIDENT","800 BLK SAMPSON ST","",""
"05/23/2019","13:53","219CR0011973","THEFT","THEFT, SHOPLIFT","2610 HARRISON AVE","",""
"05/23/2019","14:11","219CR0011974","WELFARE CHECK","WELFARE CHECK","811 S COLORADO","",""
"05/23/2019","14:13","219CR0011975","HARASSMENT","HARASSMENT","","",""
"05/23/2019","14:37","219CR0011976","WANTED PERSON","WANTED PERSON","************","",""
"05/23/2019","14:42","219CR0011977","ATL","ATL","FRONT AND KAW","",""
"05/23/2019","14:50","219CR0011978","ACCIDENT - INJURY","ACCIDENT - INJURY","GEORGE AND HARRISON","",""
"05/23/2019","14:59","219CR0011979","DISTURBANCE","DISTURBANCE","2213 WALNUT","",""
"05/23/2019","15:02","219CR0011980","UNWANTED PERSON","UNWANTED PERSON","************","",""
"05/23/2019","15:16","219CR0011981","MEDICAL - EMERGENCY","MEDICAL - EMERGENCY","2315 CENTER DR","",""
"05/23/2019","15:18","219CR0011982","ATL","ATL","ROCKER","",""
"05/23/2019","15:20","219CR0011983","ALARM - MEDICAL","ALARM - MEDICAL","************","",""
"05/23/2019","16:35","219CR0011984","HIT AND RUN","HIT AND RUN","ST JOSEPH CHURCH","",""
"05/23/2019","16:45","219CR0011985","ALARM - BURGLARY","ALARM - BURGLARY","************","",""
"05/23/2019","17:01","219CR0011986","ASSIST OTHER AGENCY","ASSIST OTHER AGENCY","738 N MONTANA","",""
"05/23/2019","17:04","219CR0011987","HIT AND RUN","FAIL TO ID, SELF AND VEHICLE","3115 S DAKOTA","",""
"05/23/2019","18:08","219CR0011988","UNWANTED PERSON","UNWANTED PERSON","************","",""
"05/23/2019","18:12","219CR0011989","MEDICAL - EMERGENCY","MEDICAL - EMERGENCY","2909 CARTER","",""
"05/23/2019","18:32","219CR0011990","STOLEN VEHICLE","THEFT, ALL OTHERS","847 S MONTANA","",""
"05/23/2019","18:46","219CR0011991","BUSINESS CHECK","BUSINESS CHECK","58 W PARK ST PARKING GARAGE","",""
"05/23/2019","19:12","219CR0011992","SUSPICIOUS ACTIVITY","SUSPICIOUS ACTIVITY","2401 CONTINENTAL DR","",""
"05/23/2019","19:36","219CR0011993","ATL","ATL","WEST ON ELIZABETH WARREN","",""
"05/23/2019","19:50","219CR0011994","SUSPICIOUS ACTIVITY","SUSPICIOUS ACTIVITY","2645 GOODWIN","",""
"05/23/2019","20:38","219CR0011995","SUICIDE ATTEMPT/THREAT","SUICIDE ATTEMPT/THREAT","************","",""
"05/23/2019","20:53","219CR0011996","SUSPICIOUS ACTIVITY","SUSPICIOUS ACTIVITY","623 W GALENA ST","",""
"05/23/2019","21:04","219CR0011997","SUSPICIOUS ACTIVITY","SUSPICIOUS ACTIVITY","217 HOBSON","",""
"05/23/2019","22:12","219CR0011998","STOLEN VEHICLE","STOLEN VEHICLE","436 S MAIN ST","",""
"05/23/2019","22:43","219CR0011999","JUVENILE MISC","JUVENILE MISC","************","",""
"05/23/2019","22:43","219CR0012000","T/S","T/S","ROWE RD AT MAIN","",""
"05/23/2019","23:07","219CR0012001","MEDICAL - EMERGENCY","MEDICAL - EMERGENCY","61 W CENTER","",""
"05/23/2019","23:24","219CR0012002","WELFARE CHECK","WELFARE CHECK","I15 MM98 SB","",""
"05/23/2019","23:58","219CR0012003","WANTED PERSON","WANTED PERSON","************","",""
"05/24/2019","00:43","219CR0012004","TRAFFIC HAZARD","TRAFFIC HAZARD","E PARK ST AND SHIELDS AVE","",""
"05/24/2019","01:05","219CR0012005","BUSINESS CHECK","BUSINESS CHECK","1370 HARRISON","",""
"05/24/2019","01:32","219CR0012006","MEDICAL - EMERGENCY","MEDICAL - EMERGENCY","1125 S MAIN ST","",""
"05/24/2019","02:02","219CR0012007","DISTURBANCE","CRIMINAL MISCHIEF","56 E BROADWAY ST ACOMA APT","ARREST(s) MADE",""
"05/24/2019","03:14","219CR0012008","ALARM - MEDICAL","ALARM - MEDICAL","************","",""
"05/24/2019","04:08","219CR0012009","PROWLER","PROWLER","2022 S ARIZONA ST","",""
"05/24/2019","04:26","219CR0012010","UNKNOWN PROBLEM","UNKNOWN PROBLEM","909 S COLORADO ST","",""
"05/24/2019","05:49","219CR0012011","WELFARE CHECK","WELFARE CHECK","1395 JOY LANE","",""
"05/24/2019","06:18","219CR0012012","SUSPICIOUS ACTIVITY","SUSPICIOUS ACTIVITY","934 S UTAH","",""
 

BSB police report for May 23, 2019

"05/22/2019","00:00","219CR0011842","TRAFFIC HAZARD","TRAFFIC HAZARD","10 BLK W BROADWAY","",""
"05/22/2019","00:24","219CR0011844","BUSINESS CHECK","BUSINESS CHECK","3878 PAXSON AVE HAPPY ENDINGS","",""
"05/22/2019","00:30","219CR0011845","T/S","T/S","3700 BLK HARRISON AVE","",""
"05/22/2019","00:52","219CR0011846","MEDICAL - EMERGENCY","MEDICAL - EMERGENCY","1350 PHYLLIS LANE","",""
"05/22/2019","01:30","219CR0011847","UNWANTED PERSON","UNWANTED PERSON","************","",""
"05/22/2019","02:03","219CR0011848","ASSAULT","ASSAULT","************","",""
"05/22/2019","02:37","219CR0011849","SUSPICIOUS ACTIVITY","SUSPICIOUS ACTIVITY","DAKOTA AND GOLD","",""
"05/22/2019","02:53","219CR0011850","DISTURBANCE","DISTURBANCE","1135 FARRELL ST","",""
"05/22/2019","03:20","219CR0011851","SUSPICIOUS ACTIVITY","CRIMINAL CONTEMPT","618 W PARK","ARREST(s) MADE",""
"05/22/2019","04:43","219CR0011852","BURGLARY","THEFT FROM MOTOR VEHICLE","108 S CRYSTAL","ARREST(s) MADE",""
"05/22/2019","05:00","219CR0011853","SUSPICIOUS ACTIVITY","SUSPICIOUS ACTIVITY","207 W PARK ST","",""
"05/22/2019","05:09","219CR0011854","MEDICAL - EMERGENCY","MEDICAL - EMERGENCY","155 W QUARTZ","",""
"05/22/2019","06:38","219CR0011855","ATL","ATL","1800 BLK HARRISON","",""
"05/22/2019","07:05","219CR0011856","T/S","T/S","400 BLK W GRANITE","",""
"05/22/2019","07:26","219CR0011857","DISTURBANCE","DISTURBANCE","834 ZARELDA","",""
"05/22/2019","07:49","219CR0011858","SUSPICIOUS ACTIVITY","SUSPICIOUS ACTIVITY","188 TRINITY LOOP","",""
"05/22/2019","08:07","219CR0011859","ATL","ATL","BEEF TRAIL","",""
"05/22/2019","08:10","219CR0011860","CITIZEN AID","CITIZEN AID","CLINTON // PARROTT","",""
"05/22/2019","08:30","219CR0011861","DETENTION BUSINESS","DETENTION BUSINESS","************","",""
"05/22/2019","08:57","219CR0011862","ASSIST OTHER AGENCY","ASSIST OTHER AGENCY","400 S CLARK ST","",""
"05/22/2019","09:19","219CR0011863","T/S","T/S","SANTA CLAUS RD AND FAWN LN","",""
"05/22/2019","09:42","219CR0011864","CIVIL PAPER SERVICE","CIVIL PAPER SERVICE","303 N WASHINGTON","",""
"05/22/2019","09:47","219CR0011865","CIVIL PAPER SERVICE","CIVIL PAPER SERVICE","700 W GOLD ST","",""
"05/22/2019","10:03","219CR0011866","ALL OTHER","ALL OTHER","189 TRINITY LOOP","",""
"05/22/2019","10:09","219CR0011867","JUVENILE MISC","JUVENILE MISC","************","",""
"05/22/2019","10:11","219CR0011868","ALL OTHER","ALL OTHER","155 W QUARTZ ST","",""
"05/22/2019","10:21","219CR0011869","WANTED PERSON","WANTED PERSON","************","",""
"05/22/2019","10:39","219CR0011870","BUSINESS CHECK","BUSINESS CHECK","58 W PARK ST PARKING GARAGE","",""
"05/22/2019","11:00","219CR0011872","CIVIL PAPER SERVICE","CIVIL PAPER SERVICE","2009 LOCUST ST","",""
"05/22/2019","11:10","219CR0011873","CIVIL PAPER SERVICE","CIVIL PAPER SERVICE","155 W QUARTZ BSB DETENTIO CENT","",""
"05/22/2019","11:17","219CR0011875","WELFARE CHECK","WELFARE CHECK","522 N MAIN","",""
"05/22/2019","11:20","219CR0011876","ASSIST OTHER AGENCY","POSSESSION OF DANGEROUS DRUGS","312 W BROADWAY","ARREST(s) MADE",""
"05/22/2019","11:29","219CR0011877","PARKING COMPLAINT","PARKING COMPLAINT","400 BLK N WYOMING W ALLEY","",""
"05/22/2019","12:26","219CR0011879","CIVIL PAPER SERVICE","CIVIL PAPER SERVICE","200 W DALY","",""
"05/22/2019","12:33","219CR0011880","ALL OTHER","ALL OTHER","","",""
"05/22/2019","12:36","219CR0011881","JUVENILE MISC","JUVENILE MISC","************","",""
"05/22/2019","12:42","219CR0011882","UNWANTED PERSON","UNWANTED PERSON","************","",""
"05/22/2019","12:44","219CR0011883","UNWANTED PERSON","UNWANTED PERSON","************","",""
"05/22/2019","12:49","219CR0011884","FRAUD","FRAUD","2870 SILVER BOW BLVD","",""
"05/22/2019","12:52","219CR0011885","ALARM - BURGLARY","ALARM - BURGLARY","************","",""
"05/22/2019","13:05","219CR0011886","DETENTION BUSINESS","DETENTION BUSINESS","************","",""
"05/22/2019","13:21","219CR0011887","CITIZEN AID","CITIZEN AID","1122 CALIFORNIA AVE","",""
"05/22/2019","13:31","219CR0011888","DRUGS","DRUGS","************","",""
"05/22/2019","13:59","219CR0011889","WELFARE CHECK","WELFARE CHECK","847 W PARK ST","",""
"05/22/2019","14:13","219CR0011890","ACCIDENT","ACCIDENT","2800 HARRISON AVE","",""
"05/22/2019","14:16","219CR0011891","MEDICAL - EMERGENCY","MEDICAL - EMERGENCY","3021 EAGLE ST","",""
"05/22/2019","14:23","219CR0011892","WANTED PERSON","WANTED PERSON","************","",""
"05/22/2019","14:30","219CR0011893","FRAUD","ISSUING A BAD CHECK","1370 HARRISON AVE","",""
"05/22/2019","14:35","219CR0011894","BURGLARY","BURGLARY","1125 S MAIN ST #101","",""
"05/22/2019","14:53","219CR0011895","T/S","T/S","KMART PARKING LOT","",""
"05/22/2019","14:59","219CR0011896","SUSPICIOUS ACTIVITY","SUSPICIOUS ACTIVITY","KMART PARKING LOT","",""
"05/22/2019","15:04","219CR0011897","MEDICAL - EMERGENCY","MEDICAL - EMERGENCY","725 S WYOMING","",""
"05/22/2019","16:05","219CR0011899","VANDALISM/CRIMINAL MISCHIEF","CRIMINAL MISCHIEF","531 S IDAHO","",""
"05/22/2019","16:14","219CR0011900","HARASSMENT","HARASSMENT","2028 LOWELL","",""
"05/22/2019","16:19","219CR0011901","FAIL TO REGISTER-NON COMPLIANT","NON-COMPLIANT REGISTERED OFFEN","225 N ALASKA ST","",""
"05/22/2019","16:40","219CR0011902","FRAUD","FORGERY/COUNTERFEIT","509 NORTH ST","",""
"05/22/2019","16:58","219CR0011903","VANDALISM/CRIMINAL MISCHIEF","CRIMINAL MISCHIEF","2525 WASHOE","",""
"05/22/2019","17:45","219CR0011904","WELFARE CHECK","WELFARE CHECK","FRONT AND HARRISON AVE","",""
"05/22/2019","18:17","219CR0011905","CIVIL PAPER SERVICE","CIVIL PAPER SERVICE","225 N ALASKA ST","",""
"05/22/2019","18:22","219CR0011906","MEDICAL - EMERGENCY","MEDICAL - EMERGENCY","GRANITE MOUTAIN MEMORIAL","",""
"05/22/2019","18:36","219CR0011907","WELFARE CHECK","WELFARE CHECK","1919 HARRISON AVE","",""
"05/22/2019","19:16","219CR0011908","THEFT","THEFT FROM BUILDINGS","1855 GARRISON AVE","",""
"05/22/2019","20:13","219CR0011909","T/S","T/S @ 300 BLK E BROADWAY","300 BLK E BROADWAY","",""
"05/22/2019","20:23","219CR0011910","SUSPICIOUS ACTIVITY","SUSPICIOUS ACTIVITY","514 BEACON RD","",""
"05/22/2019","20:24","219CR0011911","T/S","T/S @ PARK ST AND ARIZONA ST","PARK ST AND ARIZONA ST","",""
"05/22/2019","21:09","219CR0011912","ALARM - FIRE","ALARM - FIRE","129 ASPEN LANE","",""
"05/22/2019","21:18","219CR0011913","WELFARE CHECK","WELFARE CHECK","316 W PARK","",""
"05/22/2019","21:25","219CR0011914","DISTURBANCE","DISTURBANCE","2106 SILVERBOW BLV","",""
"05/22/2019","21:30","219CR0011915","DISTURBANCE","DISTURBANCE","2725 SILVER BOW BLVD","",""
"05/22/2019","21:30","219CR0011916","DISTURBANCE","DISTURBANCE","1206 SILVERBOW HOMES","",""
"05/22/2019","21:39","219CR0011917","DISTURBANCE-NOISE","DISTURBANCE-NOISE","BUTTE GUN CLUB","",""
"05/22/2019","21:48","219CR0011918","SUSPICIOUS ACTIVITY","SUSPICIOUS ACTIVITY","1125 S MAIN #101","",""
"05/22/2019","22:16","219CR0011919","DISTURBANCE-NOISE","DISTURBANCE-NOISE","934 S UTAH","",""
"05/22/2019","22:47","219CR0011920","DISTURBANCE-NOISE","DISTURBANCE-NOISE","CRYSTAL AND PARK","",""
"05/22/2019","23:04","219CR0011921","ATL","ATL","2400 BLK PARROT","",""
"05/22/2019","23:43","219CR0011922","ALL OTHER","ALL OTHER","1630 PHILLIPS AVE","",""
"05/22/2019","23:44","219CR0011923","SUSPICIOUS ACTIVITY","SUSPICIOUS ACTIVITY","1100 ROW SILVER BOW HOMES","",""
"05/23/2019","00:29","219CR0011924","FIRE- GAS ODOR","FIRE- GAS ODOR","628 1/2 W GRANITE","",""
"05/23/2019","00:48","219CR0011925","ATL","ATL","3700 HARRISON TOWN PUMP","",""
"05/23/2019","01:04","219CR0011926","T/S","T/S @ FRONT AND MAIN","FRONT AND MAIN","",""
"05/23/2019","02:29","219CR0011928","BUSINESS CHECK","BUSINESS CHECK","531 S MONTANA","",""
"05/23/2019","02:52","219CR0011929","DISTURBANCE","DISTURBANCE","1324 HARRISON AVE","",""
"05/23/2019","03:04","219CR0011930","VANDALISM/CRIMINAL MISCHIEF","VANDALISM/CRIMINAL MISCHIEF","2900 ELM BEE HIVE HOMES","",""
"05/23/2019","04:20","219CR0011931","HARASSMENT","HARASSMENT","1411 SILVER BOW HOMES","",""
"05/23/2019","04:45","219CR0011932","SUSPICIOUS ACTIVITY","SUSPICIOUS ACTIVITY","1932 OREGON AVE","",""
"05/23/2019","07:21","219CR0011933","CIVIL PAPER SERVICE","CIVIL PAPER SERVICE","1018 UTAH","",""
"05/23/2019","07:34","219CR0011934","DISTURBANCE-NOISE","DISTURBANCE-NOISE","1511 SILVER BOW HOMES","",""
 

Subcategories

Wednesday the 19th. Affiliate Marketing.
Copyright 2012

©